Location: Unspecified
(57.6483°N, 3.3184°W)
Time: 01:50:04
(UTC+00:00)

ISS - Visible Passes

Search period start: 22 January 2026 00:00
Search period end: 01 February 2026 00:00
Orbit: 413 x 423 km, 51.6° (Epoch: 21 January)

Date Brightness Start Highest point End Pass type
(mag) Time Alt. Az. Time Alt. Az. Time Alt. Az.
22 Jan -2.2 18:28:12 10° WSW 18:31:07 28° S 18:32:19 22° SSE visible
22 Jan -0.5 20:05:02 10° WSW 20:05:16 11° WSW 20:05:16 11° WSW visible
23 Jan -2.1 17:40:18 10° WSW 17:43:15 29° S 17:46:13 10° ESE visible
23 Jan -1.6 19:16:54 10° WSW 19:19:18 20° SSW 19:19:18 20° SSW visible
24 Jan -1.8 18:28:50 10° WSW 18:31:34 23° SSW 18:33:23 15° SSE visible
25 Jan -1.9 17:40:47 10° WSW 17:43:38 26° S 17:46:29 10° SE visible
25 Jan -1.0 19:18:00 10° WSW 19:19:39 13° SSW 19:20:26 12° SSW visible
26 Jan -1.1 18:29:33 10° WSW 18:31:45 17° SSW 18:33:57 10° SSE visible
27 Jan -1.3 17:41:16 10° WSW 17:43:47 20° SSW 17:46:20 10° SSE visible
28 Jan -0.4 18:31:26 10° SW 18:31:40 10° SW 18:31:56 10° SSW visible
29 Jan -0.7 17:42:00 10° WSW 17:43:42 13° SSW 17:45:25 10° S visible
